QPF
0.00 0.00 0.00 0.00 0.00 0.00 0.00 0.00 0.00 0.00 0.00 0.00 0.00 0.00 0.00 0.00 0.00 0.00 0.00 0.00 0.00 0.00 0.00 0.00 0.00 0.00 0.00 0.00 0.00 0.00 0.00 0.00 0.00 0.00 0.00 0.00 0.00 0.00 0.00 0.00 0.00 0.00 0.00
0.00 0.00 0.00 0.00 0.00 0.00 0.00 0.00 0.00 0.00 0.00 0.00 0.00 0.00 0.00 0.00 0.00 0.00 0.00 0.00 0.00 0.00 0.00 0.00 0.00 0.00 0.00 0.00 0.00 0.00 0.00 0.00 0.00 0.00 0.00 0.00 0.00 0.00 0.00 0.00 0.00 0.00 0.00
0.00 0.00 0.00 0.00 0.00 0.00 0.00 0.00 0.00 0.00 0.00 0.00 0.00 0.00 0.00 0.00 0.00 0.00 0.00 0.00 0.00 0.00 0.00 0.00 0.00 0.00 0.00 0.00 0.00 0.00 0.00 0.00 0.00 0.00 0.00 0.00 0.00 0.00 0.00 0.00 0.00 0.00 0.00
0.00 0.00 0.00 0.00 0.00 0.00 0.00 0.00 0.00 0.00 0.00 0.00 0.00 0.00 0.00 0.00 0.00 0.00 0.00 0.00 0.00 0.00 0.00 0.00 0.00 0.00 0.00 0.00 0.00 0.00 0.00 0.00 0.00 0.00 0.00 0.00 0.00 0.00 0.00 0.00 0.00 0.00 0.00
0.00 0.00 0.00 0.00 0.00 0.00 0.00 0.00 0.00 0.00 0.00 0.00 0.00 0.00 0.00 0.00 0.00 0.00 0.00 0.00 0.00 0.00 0.00 0.00 0.00 0.00 0.00 0.00 0.00 0.00 0.00 0.00 0.00 0.00 0.00 0.00 0.00 0.00 0.00 0.00 0.00 0.00 0.00
0.00 0.00 0.00 0.00 0.00 0.00 0.00 0.00 0.00 0.00 0.00 0.00 0.00 0.00 0.00 0.00 0.00 0.00 0.00 0.00 0.00 0.00 0.00 0.00 0.00 0.00 0.00 0.00 0.00 0.00 0.00 0.00 0.00 0.00 0.00 0.00 0.00 0.00 0.00 0.00 0.00 0.00 0.00
0.00 0.00 0.00 0.00 0.00 0.00 0.00 0.00 0.00 0.00 0.00 0.00 0.00 0.00 0.00 0.00 0.00 0.00 0.00 0.00 0.00 0.00 0.00 0.00 0.00 0.00 0.00 0.00 0.00 0.00 0.00 0.00 0.00 0.00 0.00 0.00 0.00 0.00 0.00 0.00 0.00 0.00 0.00
0.00 0.00 0.00 0.00 0.00 0.00 0.00 0.00 0.00 0.00 0.00 0.00 0.00 0.00 0.00 0.00 0.00 0.00 0.00 0.00 0.00 0.00 0.00 0.00 0.00 0.00 0.00 0.00 0.00 0.00 0.00 0.00 0.00 0.00 0.00 0.00 0.00 0.00 0.00 0.00 0.00 0.00 0.00
0.00 0.00 0.00 0.00 0.00 0.00 0.00 0.00 0.00 0.00 0.00 0.00 0.00 0.00 0.00 0.00 0.00 0.00 0.00 0.00 0.00 0.00 0.00 0.00 0.00 0.00 0.00 0.00 0.00 0.00 0.00 0.00 0.00 0.00 0.00 0.00 0.00 0.00 0.00 0.00 0.00 0.00 0.00
0.00 0.00 0.00 0.00 0.00 0.00 0.00 0.00 0.00 0.00 0.00 0.00 0.00 0.00 0.00 0.00 0.00 0.00 0.00 0.00 0.00 0.00 0.00 0.00 0.00 0.00 0.00 0.00 0.00 0.00 0.00 0.00 0.00 0.00 0.00 0.00 0.00 0.00 0.00 0.00 0.00 0.00 0.00
0.00 0.00 0.00 0.00 0.00 0.00 0.00 0.00 0.00 0.00 0.00 0.00 0.00 0.00 0.00 0.00 0.00 0.00 0.00 0.00 0.00 0.00 0.00 0.00 0.00 0.00 0.00 0.00 0.00 0.00 0.00 0.00 0.00 0.00 0.00 0.00 0.00 0.00 0.00 0.00 0.00 0.00 0.00
0.00 0.00 0.00 0.00 0.00 0.00 0.00 0.00 0.00 0.00 0.00 0.00 0.00 0.00 0.00 0.00 0.00 0.00 0.00 0.00 0.00 0.00 0.00 0.00 0.00 0.00 0.00 0.00 0.00 0.00 0.00 0.00 0.00 0.00 0.00 0.00 0.00 0.00 0.00 0.00 0.00 0.00 0.00
0.00 0.00 0.00 0.00 0.00 0.00 0.00 0.00 0.00 0.00 0.00 0.00 0.00 0.00 0.00 0.00 0.00 0.00 0.00 0.00 0.00 0.00 0.00 0.00 0.00 0.00 0.00 0.00 0.00 0.00 0.00 0.00 0.00 0.00 0.00 0.00 0.00 0.00 0.00 0.00 0.00 0.00 0.00
0.00 0.00 0.00 0.00 0.00 0.00 0.00 0.00 0.00 0.00 0.00 0.00 0.00 0.00 0.00 0.00 0.00 0.00 0.00 0.00 0.00 0.00 0.00 0.00 0.00 0.00 0.00 0.00 0.00 0.00 0.00 0.00 0.00 0.00 0.00 0.00 0.00 0.00 0.00 0.01 0.01 0.01 0.01
0.00 0.00 0.00 0.00 0.00 0.00 0.00 0.00 0.00 0.00 0.00 0.00 0.00 0.00 0.00 0.00 0.00 0.00 0.00 0.00 0.00 0.00 0.00 0.00 0.00 0.00 0.00 0.00 0.00 0.00 0.00 0.00 0.00 0.00 0.00 0.00 0.00 0.00 0.01 0.01 0.01 0.01 0.02
0.00 0.00 0.00 0.00 0.00 0.00 0.00 0.00 0.00 0.00 0.00 0.00 0.00 0.00 0.00 0.00 0.00 0.00 0.00 0.00 0.00 0.00 0.00 0.00 0.00 0.00 0.00 0.00 0.00 0.00 0.00 0.00 0.00 0.00 0.00 0.00 0.00 0.01 0.01 0.02 0.02 0.02 0.02
0.00 0.00 0.00 0.00 0.00 0.00 0.00 0.00 0.00 0.00 0.00 0.00 0.00 0.00 0.00 0.00 0.00 0.00 0.00 0.00 0.00 0.00 0.00 0.00 0.00 0.00 0.00 0.00 0.00 0.00 0.00 0.00 0.00 0.00 0.00 0.00 0.00 0.00 0.01 0.02 0.04 0.05 0.05
0.00 0.00 0.00 0.00 0.00 0.00 0.00 0.00 0.00 0.00 0.00 0.00 0.00 0.00 0.00 0.00 0.00 0.00 0.00 0.00 0.00 0.00 0.00 0.00 0.00 0.00 0.00 0.00 0.00 0.00 0.00 0.00 0.00 0.00 0.00 0.00 0.00 0.00 0.01 0.02 0.03 0.03 0.04
0.00 0.00 0.00 0.00 0.00 0.00 0.00 0.00 0.00 0.00 0.00 0.00 0.00 0.00 0.00 0.00 0.00 0.00 0.00 0.00 0.00 0.00 0.00 0.00 0.00 0.00 0.00 0.00 0.00 0.00 0.00 0.00 0.00 0.00 0.00 0.01 0.01 0.01 0.02 0.05 0.04 0.02 0.01
0.00 0.00 0.00 0.00 0.00 0.00 0.00 0.00 0.00 0.00 0.00 0.00 0.00 0.00 0.00 0.00 0.00 0.00 0.00 0.00 0.00 0.00 0.00 0.00 0.00 0.00 0.00 0.00 0.00 0.00 0.00 0.01 0.01 0.01 0.01 0.01 0.02 0.01 0.03 0.06 0.06 0.03 0.01
0.00 0.00 0.00 0.00 0.00 0.00 0.00 0.00 0.00 0.00 0.00 0.00 0.00 0.00 0.00 0.00 0.00 0.00 0.00 0.00 0.00 0.00 0.00 0.00 0.00 0.00 0.00 0.00 0.00 0.00 0.01 0.01 0.02 0.02 0.02 0.01 0.02 0.03 0.04 0.06 0.06 0.03 0.01
0.00 0.00 0.00 0.00 0.00 0.00 0.00 0.00 0.00 0.00 0.00 0.00 0.00 0.00 0.00 0.00 0.00 0.00 0.00 0.00 0.00 0.00 0.00 0.00 0.00 0.00 0.00 0.00 0.00 0.01 0.01 0.02 0.03 0.03 0.02 0.01 0.02 0.03 0.05 0.06 0.07 0.05 0.05
0.00 0.00 0.00 0.00 0.00 0.00 0.00 0.00 0.00 0.00 0.00 0.00 0.00 0.00 0.00 0.00 0.00 0.00 0.00 0.00 0.00 0.00 0.00 0.00 0.00 0.00 0.00 0.00 0.00 0.01 0.01 0.03 0.04 0.03 0.02 0.03 0.03 0.04 0.04 0.06 0.07 0.07 0.09
0.00 0.00 0.00 0.00 0.00 0.00 0.00 0.00 0.00 0.00 0.00 0.00 0.00 0.00 0.00 0.00 0.00 0.00 0.00 0.00 0.00 0.00 0.01 0.01 0.01 0.01 0.01 0.00 0.01 0.01 0.01 0.02 0.03 0.04 0.04 0.05 0.05 0.05 0.04 0.03 0.05 0.07 0.09
0.00 0.00 0.00 0.00 0.00 0.00 0.00 0.00 0.00 0.00 0.00 0.00 0.00 0.00 0.00 0.00 0.00 0.00 0.00 0.00 0.00 0.01 0.02 0.02 0.02 0.02 0.02 0.01 0.02 0.02 0.02 0.03 0.03 0.05 0.06 0.06 0.06 0.07 0.07 0.05 0.04 0.05 0.06
0.00 0.00 0.00 0.00 0.00 0.00 0.00 0.00 0.00 0.00 0.00 0.00 0.00 0.00 0.00 0.00 0.00 0.00 0.00 0.00 0.00 0.01 0.01 0.01 0.02 0.02 0.02 0.03 0.03 0.03 0.04 0.04 0.05 0.08 0.09 0.06 0.06 0.05 0.06 0.05 0.04 0.04 0.04
MSLP
1012.21 1011.96 1011.84 1011.85 1012.02 1012.34 1012.80 1013.37 1014.02 1014.71 1015.39 1016.03 1016.61 1017.12 1017.57 1017.96 1018.32 1018.67 1019.02 1019.39 1019.77 1020.17 1020.58 1021.02 1021.46 1021.92 1022.37 1022.82 1023.26 1023.65 1023.99 1024.24 1024.41 1024.46 1024.41 1024.27 1024.05 1023.80 1023.53 1023.29 1023.11 1022.99 1022.95
1012.47 1012.21 1012.04 1011.98 1012.04 1012.24 1012.57 1013.03 1013.59 1014.21 1014.86 1015.49 1016.08 1016.60 1017.05 1017.43 1017.76 1018.05 1018.33 1018.63 1018.94 1019.30 1019.69 1020.12 1020.58 1021.06 1021.54 1022.01 1022.46 1022.86 1023.21 1023.47 1023.64 1023.72 1023.69 1023.58 1023.40 1023.17 1022.93 1022.70 1022.52 1022.39 1022.34
1012.81 1012.56 1012.37 1012.26 1012.24 1012.32 1012.53 1012.86 1013.31 1013.85 1014.44 1015.05 1015.63 1016.14 1016.58 1016.93 1017.21 1017.44 1017.64 1017.85 1018.10 1018.39 1018.73 1019.13 1019.58 1020.04 1020.52 1020.99 1021.44 1021.84 1022.18 1022.45 1022.65 1022.76 1022.79 1022.74 1022.63 1022.46 1022.28 1022.09 1021.92 1021.80 1021.74
1013.15 1012.95 1012.78 1012.64 1012.56 1012.55 1012.64 1012.84 1013.18 1013.62 1014.14 1014.69 1015.23 1015.71 1016.12 1016.42 1016.64 1016.79 1016.92 1017.04 1017.20 1017.41 1017.69 1018.04 1018.44 1018.88 1019.33 1019.77 1020.19 1020.58 1020.92 1021.21 1021.44 1021.61 1021.72 1021.77 1021.75 1021.68 1021.57 1021.44 1021.31 1021.20 1021.12
1013.47 1013.34 1013.21 1013.09 1012.96 1012.88 1012.87 1012.95 1013.17 1013.50 1013.92 1014.39 1014.86 1015.28 1015.63 1015.88 1016.02 1016.10 1016.13 1016.16 1016.23 1016.37 1016.57 1016.86 1017.20 1017.58 1017.98 1018.38 1018.77 1019.13 1019.47 1019.78 1020.06 1020.31 1020.51 1020.66 1020.77 1020.81 1020.79 1020.73 1020.65 1020.55 1020.47
1013.75 1013.71 1013.65 1013.54 1013.41 1013.27 1013.17 1013.14 1013.23 1013.44 1013.75 1014.11 1014.49 1014.84 1015.11 1015.27 1015.34 1015.33 1015.28 1015.23 1015.22 1015.27 1015.40 1015.61 1015.88 1016.20 1016.54 1016.89 1017.24 1017.58 1017.91 1018.24 1018.57 1018.89 1019.19 1019.46 1019.67 1019.83 1019.92 1019.93 1019.90 1019.83 1019.76
1013.99 1014.04 1014.05 1013.98 1013.84 1013.66 1013.49 1013.36 1013.33 1013.42 1013.60 1013.85 1014.12 1014.36 1014.54 1014.62 1014.61 1014.53 1014.40 1014.27 1014.18 1014.16 1014.21 1014.35 1014.56 1014.81 1015.09 1015.38 1015.68 1015.99 1016.31 1016.65 1017.02 1017.40 1017.79 1018.15 1018.48 1018.74 1018.92 1019.01 1019.04 1019.01 1018.95
1014.22 1014.35 1014.41 1014.37 1014.23 1014.02 1013.78 1013.56 1013.43 1013.39 1013.45 1013.58 1013.74 1013.88 1013.97 1013.96 1013.88 1013.72 1013.53 1013.33 1013.18 1013.09 1013.08 1013.15 1013.28 1013.47 1013.68 1013.91 1014.16 1014.43 1014.73 1015.08 1015.46 1015.88 1016.33 1016.77 1017.17 1017.52 1017.77 1017.94 1018.03 1018.05 1018.03
1014.42 1014.60 1014.71 1014.68 1014.54 1014.29 1014.00 1013.71 1013.48 1013.34 1013.29 1013.32 1013.37 1013.42 1013.41 1013.33 1013.18 1012.96 1012.71 1012.46 1012.26 1012.11 1012.04 1012.05 1012.11 1012.23 1012.37 1012.53 1012.73 1012.95 1013.22 1013.54 1013.92 1014.36 1014.83 1015.31 1015.77 1016.17 1016.49 1016.72 1016.87 1016.95 1016.99
1014.61 1014.81 1014.92 1014.89 1014.73 1014.45 1014.12 1013.78 1013.49 1013.28 1013.15 1013.08 1013.05 1013.01 1012.93 1012.79 1012.57 1012.30 1012.00 1011.70 1011.45 1011.25 1011.13 1011.07 1011.07 1011.11 1011.18 1011.27 1011.40 1011.56 1011.78 1012.07 1012.42 1012.84 1013.32 1013.80 1014.28 1014.72 1015.08 1015.37 1015.58 1015.73 1015.85
1014.75 1014.94 1015.02 1014.97 1014.79 1014.49 1014.14 1013.78 1013.46 1013.20 1013.02 1012.90 1012.80 1012.70 1012.55 1012.35 1012.08 1011.75 1011.41 1011.07 1010.77 1010.52 1010.34 1010.22 1010.15 1010.11 1010.11 1010.12 1010.18 1010.27 1010.43 1010.66 1010.97 1011.36 1011.80 1012.27 1012.74 1013.19 1013.58 1013.91 1014.18 1014.41 1014.62
1014.84 1014.98 1015.01 1014.93 1014.72 1014.42 1014.06 1013.71 1013.39 1013.13 1012.93 1012.78 1012.64 1012.48 1012.28 1012.02 1011.69 1011.33 1010.93 1010.55 1010.20 1009.90 1009.65 1009.46 1009.32 1009.21 1009.12 1009.06 1009.04 1009.06 1009.15 1009.32 1009.57 1009.90 1010.30 1010.74 1011.20 1011.64 1012.05 1012.41 1012.74 1013.04 1013.33
1014.87 1014.93 1014.90 1014.77 1014.54 1014.24 1013.92 1013.59 1013.31 1013.07 1012.88 1012.72 1012.55 1012.35 1012.09 1011.78 1011.39 1010.97 1010.53 1010.09 1009.69 1009.33 1009.02 1008.77 1008.55 1008.36 1008.19 1008.05 1007.95 1007.90 1007.92 1008.03 1008.22 1008.50 1008.85 1009.26 1009.68 1010.11 1010.53 1010.92 1011.30 1011.66 1012.04
1014.82 1014.80 1014.70 1014.52 1014.28 1014.00 1013.72 1013.45 1013.21 1013.01 1012.84 1012.68 1012.48 1012.24 1011.94 1011.56 1011.12 1010.64 1010.14 1009.65 1009.19 1008.78 1008.41 1008.09 1007.80 1007.53 1007.29 1007.08 1006.90 1006.78 1006.74 1006.79 1006.93 1007.16 1007.47 1007.84 1008.24 1008.66 1009.08 1009.49 1009.90 1010.32 1010.75
1014.71 1014.60 1014.43 1014.21 1013.97 1013.72 1013.48 1013.27 1013.09 1012.94 1012.79 1012.62 1012.40 1012.11 1011.75 1011.31 1010.80 1010.26 1009.71 1009.18 1008.67 1008.21 1007.78 1007.40 1007.04 1006.71 1006.40 1006.12 1005.88 1005.70 1005.61 1005.61 1005.71 1005.90 1006.17 1006.52 1006.90 1007.30 1007.72 1008.14 1008.57 1009.02 1009.48
1014.56 1014.36 1014.12 1013.88 1013.63 1013.41 1013.22 1013.07 1012.94 1012.82 1012.67 1012.48 1012.22 1011.88 1011.46 1010.95 1010.39 1009.80 1009.20 1008.63 1008.09 1007.58 1007.12 1006.68 1006.28 1005.89 1005.52 1005.18 1004.89 1004.67 1004.53 1004.49 1004.56 1004.73 1004.98 1005.30 1005.66 1006.05 1006.47 1006.89 1007.32 1007.77 1008.25
1014.40 1014.11 1013.82 1013.54 1013.30 1013.10 1012.95 1012.83 1012.72 1012.61 1012.45 1012.22 1011.91 1011.51 1011.02 1010.45 1009.84 1009.21 1008.59 1007.99 1007.43 1006.91 1006.42 1005.95 1005.50 1005.07 1004.66 1004.27 1003.94 1003.68 1003.51 1003.45 1003.50 1003.64 1003.88 1004.18 1004.53 1004.91 1005.31 1005.71 1006.13 1006.57 1007.04
1014.23 1013.88 1013.53 1013.23 1012.99 1012.80 1012.65 1012.54 1012.43 1012.29 1012.09 1011.81 1011.43 1010.96 1010.41 1009.79 1009.15 1008.50 1007.87 1007.27 1006.71 1006.19 1005.69 1005.21 1004.74 1004.27 1003.83 1003.41 1003.05 1002.76 1002.57 1002.49 1002.52 1002.65 1002.88 1003.16 1003.49 1003.85 1004.22 1004.60 1004.99 1005.40 1005.83
1014.09 1013.68 1013.29 1012.97 1012.70 1012.50 1012.34 1012.21 1012.06 1011.86 1011.60 1011.24 1010.79 1010.25 1009.64 1008.99 1008.33 1007.68 1007.06 1006.49 1005.95 1005.44 1004.95 1004.47 1003.98 1003.50 1003.03 1002.59 1002.21 1001.90 1001.70 1001.60 1001.62 1001.74 1001.95 1002.21 1002.52 1002.85 1003.18 1003.52 1003.87 1004.23 1004.61
1013.99 1013.53 1013.11 1012.75 1012.45 1012.22 1012.02 1011.83 1011.61 1011.34 1010.98 1010.54 1010.01 1009.41 1008.77 1008.10 1007.44 1006.80 1006.22 1005.67 1005.16 1004.68 1004.20 1003.72 1003.24 1002.74 1002.26 1001.81 1001.41 1001.10 1000.88 1000.78 1000.79 1000.90 1001.08 1001.32 1001.59 1001.88 1002.16 1002.45 1002.75 1003.06 1003.40
1013.91 1013.41 1012.96 1012.57 1012.24 1011.95 1011.69 1011.42 1011.12 1010.75 1010.30 1009.77 1009.17 1008.52 1007.84 1007.17 1006.52 1005.92 1005.36 1004.85 1004.37 1003.91 1003.45 1002.97 1002.48 1001.99 1001.50 1001.04 1000.64 1000.33 1000.11 1000.00 1000.00 1000.09 1000.25 1000.46 1000.69 1000.93 1001.16 1001.40 1001.64 1001.90 1002.19
1013.85 1013.33 1012.85 1012.43 1012.05 1011.70 1011.36 1011.01 1010.60 1010.14 1009.60 1008.99 1008.33 1007.64 1006.95 1006.27 1005.64 1005.06 1004.53 1004.04 1003.58 1003.13 1002.68 1002.20 1001.71 1001.21 1000.72 1000.26 999.87 999.56 999.35 999.24 999.24 999.31 999.44 999.61 999.79 999.98 1000.16 1000.34 1000.53 1000.75 1001.01
1013.79 1013.26 1012.76 1012.30 1011.88 1011.47 1011.05 1010.60 1010.11 1009.55 1008.93 1008.25 1007.55 1006.82 1006.12 1005.45 1004.82 1004.26 1003.74 1003.26 1002.80 1002.34 1001.87 1001.38 1000.88 1000.37 999.89 999.44 999.06 998.77 998.57 998.47 998.46 998.52 998.62 998.76 998.89 999.03 999.16 999.30 999.45 999.64 999.88
1013.72 1013.18 1012.66 1012.17 1011.70 1011.23 1010.74 1010.21 1009.64 1009.00 1008.32 1007.59 1006.85 1006.11 1005.39 1004.72 1004.09 1003.52 1002.99 1002.49 1002.01 1001.52 1001.02 1000.50 999.99 999.47 998.99 998.56 998.20 997.93 997.75 997.66 997.65 997.69 997.78 997.87 997.97 998.07 998.16 998.26 998.40 998.57 998.81
1013.59 1013.05 1012.52 1012.01 1011.49 1010.97 1010.42 1009.83 1009.19 1008.50 1007.77 1007.02 1006.25 1005.49 1004.77 1004.08 1003.44 1002.84 1002.28 1001.74 1001.20 1000.66 1000.12 999.57 999.02 998.50 998.02 997.61 997.27 997.02 996.87 996.79 996.78 996.82 996.88 996.95 997.01 997.08 997.15 997.24 997.37 997.56 997.82
1013.40 1012.85 1012.31 1011.77 1011.23 1010.67 1010.08 1009.44 1008.76 1008.03 1007.27 1006.50 1005.72 1004.96 1004.22 1003.51 1002.84 1002.20 1001.59 1000.98 1000.38 999.77 999.17 998.58 998.01 997.47 997.00 996.60 996.28 996.06 995.92 995.85 995.84 995.87 995.91 995.96 996.01 996.06 996.13 996.23 996.38 996.60 996.90
Thickness
5707 5710 5707 5700 5693 5687 5682 5677 5671 5665 5658 5651 5645 5640 5638 5634 5630 5626 5622 5617 5611 5605 5599 5595 5589 5583 5578 5575 5569 5563 5558 5553 5546 5541 5541 5544 5544 5545 5543 5540 5537 5534 5530
5698 5699 5697 5692 5688 5683 5678 5673 5669 5663 5657 5652 5647 5640 5635 5630 5626 5621 5617 5612 5607 5601 5596 5590 5585 5579 5573 5568 5563 5556 5550 5545 5537 5531 5526 5528 5536 5540 5540 5536 5532 5528 5522
5685 5687 5686 5684 5679 5676 5672 5670 5665 5660 5654 5648 5640 5632 5625 5622 5618 5614 5611 5607 5602 5597 5592 5587 5581 5574 5568 5564 5558 5550 5543 5538 5531 5525 5518 5513 5525 5527 5530 5528 5525 5520 5514
5677 5676 5676 5675 5672 5670 5667 5662 5658 5653 5647 5640 5633 5627 5623 5620 5619 5613 5608 5603 5597 5592 5587 5582 5576 5570 5564 5559 5553 5545 5538 5530 5526 5517 5515 5512 5509 5506 5513 5515 5513 5509 5505
5667 5667 5666 5665 5664 5661 5658 5654 5649 5644 5639 5633 5628 5622 5620 5618 5613 5606 5601 5596 5592 5587 5583 5577 5570 5565 5560 5555 5548 5541 5533 5527 5522 5514 5507 5501 5496 5491 5486 5498 5499 5494 5494
5658 5657 5656 5655 5653 5651 5647 5644 5640 5635 5631 5625 5620 5615 5612 5608 5603 5597 5593 5590 5585 5581 5577 5570 5565 5560 5555 5550 5543 5536 5529 5524 5517 5511 5503 5495 5490 5490 5481 5482 5486 5482 5482
5648 5647 5646 5644 5642 5641 5638 5634 5630 5626 5622 5616 5611 5607 5604 5600 5595 5592 5587 5583 5579 5575 5571 5564 5559 5554 5550 5544 5537 5530 5524 5518 5512 5507 5501 5495 5491 5483 5477 5474 5476 5471 5469
5639 5639 5637 5634 5632 5632 5629 5625 5621 5617 5613 5608 5604 5600 5595 5591 5588 5585 5581 5577 5574 5571 5565 5559 5554 5550 5544 5538 5531 5525 5519 5513 5508 5502 5496 5490 5486 5477 5470 5465 5457 5454 5455
5633 5631 5629 5627 5624 5622 5619 5616 5612 5609 5605 5601 5596 5591 5587 5583 5580 5577 5573 5569 5566 5563 5558 5553 5548 5543 5537 5531 5525 5519 5515 5508 5503 5498 5491 5485 5481 5472 5466 5458 5450 5442 5444
5625 5623 5620 5617 5614 5612 5608 5606 5602 5599 5596 5592 5587 5584 5579 5575 5571 5567 5563 5560 5557 5553 5548 5544 5539 5535 5529 5524 5517 5514 5509 5502 5499 5492 5485 5480 5474 5466 5458 5451 5444 5437 5434
5616 5613 5610 5608 5604 5601 5598 5595 5592 5589 5585 5582 5578 5573 5569 5564 5560 5555 5552 5549 5545 5541 5536 5533 5528 5524 5520 5514 5509 5506 5501 5495 5492 5485 5478 5474 5466 5459 5452 5444 5437 5431 5424
5608 5604 5600 5597 5593 5589 5586 5583 5580 5577 5574 5570 5565 5560 5556 5551 5546 5542 5539 5536 5532 5528 5523 5520 5516 5512 5508 5504 5499 5496 5492 5487 5483 5478 5471 5467 5458 5451 5444 5436 5431 5425 5418
5599 5593 5589 5584 5581 5577 5574 5571 5568 5564 5561 5557 5551 5546 5541 5536 5532 5529 5525 5521 5517 5513 5509 5505 5502 5499 5495 5491 5488 5485 5482 5479 5475 5469 5462 5458 5448 5444 5437 5429 5424 5418 5411
5587 5583 5577 5572 5568 5565 5562 5559 5555 5551 5547 5542 5536 5531 5526 5522 5518 5514 5509 5505 5501 5497 5494 5490 5487 5484 5481 5478 5475 5471 5469 5467 5464 5460 5454 5448 5441 5436 5429 5422 5417 5409 5402
5577 5573 5566 5561 5557 5554 5550 5546 5542 5537 5531 5525 5520 5515 5511 5506 5501 5497 5493 5488 5484 5480 5477 5474 5472 5468 5465 5463 5459 5457 5456 5454 5452 5449 5444 5439 5433 5427 5420 5414 5408 5400 5393
5565 5561 5557 5551 5546 5541 5537 5532 5526 5521 5514 5507 5502 5498 5493 5488 5483 5479 5475 5471 5467 5463 5460 5457 5455 5453 5451 5450 5450 5448 5445 5443 5440 5437 5433 5428 5423 5419 5415 5411 5404 5395 5385
5553 5548 5543 5538 5532 5527 5522 5515 5509 5503 5495 5489 5484 5479 5474 5469 5465 5461 5457 5453 5450 5447 5444 5441 5438 5437 5437 5436 5437 5437 5436 5434 5431 5427 5422 5418 5414 5408 5403 5400 5397 5392 5386
5540 5534 5528 5523 5518 5512 5505 5498 5490 5483 5477 5471 5465 5460 5455 5451 5447 5443 5439 5436 5434 5431 5429 5427 5425 5424 5424 5423 5425 5425 5425 5424 5421 5417 5412 5407 5403 5397 5391 5386 5382 5379 5376
5526 5520 5514 5508 5501 5494 5487 5479 5472 5465 5458 5453 5448 5443 5437 5434 5431 5427 5424 5421 5419 5418 5416 5414 5413 5412 5413 5412 5412 5413 5412 5411 5409 5405 5400 5395 5391 5388 5383 5377 5372 5368 5365
5513 5507 5499 5491 5483 5476 5468 5459 5453 5447 5442 5438 5433 5428 5422 5418 5416 5414 5411 5409 5406 5405 5404 5404 5402 5400 5401 5401 5401 5401 5399 5398 5397 5393 5389 5386 5382 5378 5374 5369 5364 5359 5354
5496 5490 5481 5472 5464 5457 5449 5442 5437 5432 5428 5424 5419 5414 5409 5404 5402 5401 5399 5396 5394 5394 5393 5393 5393 5391 5390 5391 5390 5390 5388 5386 5385 5382 5379 5375 5374 5372 5368 5362 5357 5352 5344
5480 5473 5464 5456 5447 5438 5430 5427 5423 5420 5415 5411 5406 5402 5398 5393 5391 5389 5388 5385 5383 5383 5384 5384 5385 5383 5381 5380 5380 5380 5380 5379 5376 5374 5371 5368 5366 5363 5360 5355 5350 5344 5338
5462 5455 5447 5440 5433 5423 5414 5410 5410 5406 5402 5399 5395 5391 5388 5384 5380 5378 5378 5377 5375 5374 5375 5374 5376 5377 5374 5371 5371 5371 5371 5370 5367 5365 5363 5361 5358 5355 5350 5346 5342 5336 5329
5445 5438 5430 5425 5421 5414 5405 5398 5395 5392 5389 5387 5384 5381 5378 5377 5374 5370 5368 5367 5366 5365 5366 5367 5368 5369 5367 5364 5362 5360 5359 5358 5356 5354 5353 5351 5348 5344 5339 5335 5330 5326 5321
5429 5421 5413 5409 5406 5403 5397 5390 5384 5380 5378 5376 5373 5371 5368 5367 5367 5365 5362 5361 5360 5357 5359 5360 5359 5359 5361 5360 5359 5357 5354 5349 5347 5344 5341 5337 5334 5330 5326 5322 5318 5314 5311
5413 5407 5401 5396 5394 5391 5386 5381 5375 5370 5367 5366 5365 5363 5361 5360 5359 5359 5361 5360 5357 5358 5356 5355 5354 5354 5353 5354 5354 5352 5350 5347 5344 5339 5334 5330 5325 5321 5317 5313 5309 5305 5301